Location: College Park
(38.9810°N, 76.9370°W)
Time: 07:57:55
(UTC-04:00)

Hubble Space Telescope - Pass Details

Date: 03 January 2018
Orbit: 537 x 541 km, 28.5° (Epoch: 24 June)

Event Time Altitude Azimuth Distance (km) Brightness Sun altitude
Exits shadow 05:16:19 - 186° (S) 1,822 3.5 -24.6°
Reaches altitude 10° 05:16:36 10° 183° (S) 1,782 3.5 -24.6°
Maximum altitude 05:17:57 11° 163° (SSE) 1,696 3.6 -24.3°
Drops below altitude 10° 05:19:17 10° 144° (SE) 1,783 4.0 -24.1°
Sets 05:23:01 0° 110° (ESE) 2,674 5.7 -23.4°
